#timestamp,LO_Frequency,Hit,StdDev 
1592730015.6,286047002.5,N
1592730035.4,286047002.1,N
1592730055.2,286047001.5,N
1592730075.1,286047001.6,N
1592730076.0,286047001.6,N
1592730095.8,286047001.8,N
1592730115.7,286047002.0,N
1592730135.5,286047004.4,Y
1592730155.3,286047000.8,P
1592730175.2,286046998.1,N
1592730195.0,286046998.4,N
1592730195.9,286046998.4,N
1592730215.8,286046998.4,N
1592730235.6,286046998.5,N
1592730255.4,286047000.8,N
1592730275.3,286047000.6,N
1592730295.1,286047001.1,N
1592730315.8,286046999.5,N
1592730335.7,286046996.7,N
1592730355.5,286046997.3,N
1592730375.4,286046996.8,N
1592730395.2,286046999.3,N
1592730415.0,286046999.2,N
1592730415.9,286046999.2,N
1592730435.8,286046996.9,N
1592730455.6,286046998.9,N
1592730475.5,286046998.5,N
1592730495.3,286046998.5,N
1592730515.1,286047000.7,N
1592730535.9,286046998.2,N
1592730555.7,286047001.0,N
1592730575.5,286047000.9,N
1592730595.4,286047001.1,N
1592730615.2,286047000.6,N
1592730635.0,286047000.3,N
1592730636.0,286047000.3,N
1592730655.8,286047000.2,N
1592730675.6,286047000.8,N
1592730695.5,286047000.1,N
1592730715.3,286046998.1,N
1592730735.1,286047001.1,N
1592730755.9,286046999.2,N
1592730775.7,286046996.5,N
1592730795.6,286046997.4,N
1592730815.4,286046999.5,N
1592730835.2,286047000.8,N
1592730855.1,286046997.5,N
1592730856.0,286046997.5,N
1592730875.8,286046997.2,N
1592730895.6,286046996.5,N
1592730915.5,286046999.2,N
1592730935.3,286046999.6,N
1592730955.1,286046998.9,N
1592730975.9,286046998.5,N
1592730995.7,286046998.1,N
1592731015.6,286046998.3,N
1592731035.4,286046996.7,N
1592731055.2,286046997.1,N
1592731075.1,286046996.9,N
1592731076.0,286046996.9,N
1592731095.8,286046997.1,N
1592731115.6,286046997.7,N
1592731135.5,286046996.9,N
1592731155.3,286046997.0,N
1592731175.2,286046999.5,N
1592731195.9,286046996.5,N
1592731215.7,286046996.6,N
1592731235.6,286046997.3,N
1592731255.4,286046997.4,N
1592731275.2,286046999.6,N
1592731295.1,286046999.2,N
1592731296.0,286046999.2,N
1592731315.8,286046999.3,N
1592731335.7,286046999.1,N
1592731355.5,286046998.2,N
1592731375.3,286047000.9,N
1592731395.2,286046998.2,N
1592731415.0,286046998.4,N
1592731415.9,286046998.4,N
1592731435.8,286046998.3,N
1592731455.6,286046999.0,N
1592731475.4,286046998.9,N
1592731495.3,286046999.4,N
1592731515.1,286046998.3,N
1592731535.8,286046999.2,N
1592731555.7,286046999.6,N
1592731575.5,286046997.1,N
1592731595.4,286046996.7,N
1592731615.2,286046996.8,N
1592731635.0,286046996.5,Y
1592731635.9,286046996.5,P
1592731655.8,286047000.1,N
1592731675.6,286047000.0,N
1592731695.5,286047000.9,N
1592731715.3,286047001.1,N
1592731735.1,286046996.6,N
1592731755.9,286046995.4,N
1592731775.7,286046996.1,N
1592731795.6,286046993.7,N
1592731815.4,286046996.1,N
1592731835.2,286046995.3,N
1592731855.1,286046995.0,N
1592731856.0,286046995.0,N
1592731875.8,286046997.9,N
1592731895.6,286046996.1,N
1592731915.5,286046994.1,N
1592731935.3,286046994.5,N
1592731955.2,286046994.6,N
1592731975.9,286046992.1,Y
1592731995.7,286046995.7,P
1592732015.6,286046993.4,P
1592732035.4,286046996.0,N
1592732055.2,286046996.1,Y
1592732075.1,286046996.9,P
1592732076.0,286046996.9,P
1592732095.8,286046998.3,N
1592732115.7,286047000.8,N
1592732135.5,286047004.2,N
1592732155.3,286047003.6,N
1592732175.2,286047001.3,N
1592732195.0,286047004.6,N
1592732195.9,286047004.6,N
1592732215.7,286047007.4,N
1592732235.6,286047007.5,N
1592732255.4,286047006.2,N
1592732275.3,286047008.4,N
1592732295.1,286047008.2,N
1592732296.0,286047008.2,N
1592732315.8,286047007.8,N
1592732335.7,286047009.4,N
1592732355.5,286047011.9,N
1592732375.4,286047012.1,N
1592732395.2,286047011.1,N
1592732415.0,286047012.2,N
1592732415.9,286047012.2,N
1592732435.8,286047013.8,N
1592732455.6,286047014.7,N
1592732475.4,286047014.8,N
1592732495.3,286047015.4,N
1592732515.1,286047015.2,N
1592732535.9,286047012.7,N
1592732555.7,286047014.4,N
1592732575.5,286047014.2,N
1592732595.4,286047017.2,Y
1592732615.2,286047009.2,P
1592732635.1,286047008.2,P
1592732636.0,286047008.2,P
1592732655.8,286047008.3,Y
1592732675.6,286047000.3,P
1592732695.5,286047002.8,N
1592732715.3,286047000.0,N
1592732735.1,286047000.9,N
1592732755.9,286046998.6,N
1592732775.7,286047000.2,N
1592732795.6,286047001.0,N
1592732815.4,286047001.0,N
1592732835.2,286047000.0,N
1592732855.1,286047002.7,N
1592732856.0,286047002.7,N
1592732875.8,286047000.1,N
1592732895.6,286047002.4,N
1592732915.5,286047000.9,N
1592732935.3,286046999.8,N
1592732955.2,286047000.2,N
1592732975.9,286047002.1,N
1592732995.7,286047002.1,N
1592733015.6,286047001.7,N
1592733035.4,286047004.3,N
1592733055.2,286047001.5,N
1592733075.1,286047003.6,N
1592733076.0,286047003.6,N
1592733095.8,286047002.0,N
1592733115.7,286047000.0,N
1592733135.5,286047002.4,N
1592733155.3,286047001.3,N
1592733175.2,286047004.0,N
1592733195.0,286047003.9,N
1592733195.9,286047003.9,N
1592733215.7,286047004.4,N
1592733235.6,286047003.7,N
1592733255.4,286047003.0,N
1592733275.3,286047004.1,N
1592733295.1,286047004.2,N
1592733296.0,286047004.2,N
1592733315.8,286047003.5,N
1592733335.7,286047006.0,Y
1592733355.5,286047002.1,P
1592733375.4,286046999.9,N
1592733395.2,286046998.9,N
1592733415.0,286046998.5,N
1592733415.9,286046998.5,N
1592733435.8,286047002.3,N
1592733455.6,286047002.5,N
1592733475.4,286047002.8,N
1592733495.3,286047000.0,N
1592733515.1,286047002.7,N
1592733535.9,286047000.2,N
1592733555.7,286047000.2,N
1592733575.5,286047002.8,N
1592733595.4,286047002.1,N
